QPF
0.00 0.00 0.00 0.00 0.00 0.00 0.00 0.00 0.00 0.00 0.00 0.00 0.00 0.00 0.00 0.00 0.00 0.00 0.00 0.04 0.09 0.11 0.11 0.14 0.17 0.14 0.08 0.11 0.13 0.11 0.04 0.01
0.00 0.00 0.00 0.00 0.00 0.00 0.00 0.00 0.00 0.00 0.00 0.00 0.00 0.00 0.00 0.00 0.00 0.00 0.00 0.00 0.00 0.00 0.01 0.05 0.07 0.08 0.09 0.08 0.06 0.06 0.09 0.06
0.00 0.00 0.00 0.00 0.00 0.00 0.00 0.00 0.00 0.00 0.00 0.00 0.00 0.00 0.00 0.00 0.00 0.00 0.00 0.00 0.00 0.00 0.00 0.00 0.00 0.01 0.00 0.01 0.02 0.03 0.03 0.05
0.00 0.00 0.00 0.00 0.00 0.00 0.00 0.00 0.00 0.00 0.00 0.00 0.00 0.00 0.00 0.00 0.00 0.00 0.00 0.00 0.00 0.00 0.00 0.00 0.00 0.00 0.00 0.00 0.01 0.02 0.03 0.02
0.00 0.00 0.00 0.00 0.00 0.00 0.00 0.00 0.00 0.00 0.00 0.00 0.00 0.00 0.00 0.00 0.00 0.00 0.00 0.00 0.00 0.00 0.00 0.00 0.00 0.00 0.00 0.00 0.01 0.02 0.04 0.04
0.00 0.00 0.00 0.00 0.00 0.00 0.00 0.00 0.00 0.00 0.00 0.00 0.00 0.00 0.00 0.00 0.00 0.00 0.00 0.00 0.00 0.00 0.00 0.00 0.00 0.00 0.00 0.00 0.01 0.01 0.01 0.02
0.00 0.00 0.00 0.00 0.00 0.00 0.00 0.00 0.00 0.00 0.00 0.00 0.00 0.00 0.00 0.00 0.00 0.00 0.00 0.00 0.00 0.00 0.00 0.00 0.00 0.00 0.00 0.00 0.00 0.00 0.00 0.00
0.00 0.00 0.00 0.00 0.00 0.00 0.00 0.00 0.00 0.00 0.00 0.00 0.00 0.00 0.00 0.00 0.00 0.00 0.00 0.00 0.00 0.00 0.00 0.00 0.00 0.00 0.00 0.00 0.00 0.00 0.01 0.01
0.00 0.00 0.00 0.00 0.00 0.00 0.00 0.00 0.00 0.00 0.00 0.00 0.00 0.00 0.00 0.00 0.00 0.00 0.00 0.00 0.00 0.00 0.00 0.00 0.00 0.00 0.01 0.03 0.03 0.04 0.05 0.04
0.00 0.00 0.00 0.00 0.00 0.00 0.00 0.00 0.00 0.00 0.00 0.00 0.00 0.00 0.00 0.00 0.00 0.00 0.00 0.00 0.00 0.00 0.00 0.00 0.00 0.00 0.00 0.02 0.05 0.09 0.10 0.08
0.00 0.00 0.00 0.00 0.00 0.00 0.00 0.00 0.00 0.00 0.00 0.00 0.00 0.00 0.00 0.00 0.00 0.00 0.00 0.00 0.00 0.00 0.00 0.00 0.00 0.00 0.00 0.01 0.07 0.09 0.11 0.14
0.00 0.00 0.00 0.00 0.00 0.00 0.00 0.00 0.00 0.00 0.00 0.00 0.00 0.00 0.00 0.00 0.00 0.00 0.00 0.00 0.00 0.00 0.00 0.00 0.00 0.00 0.00 0.01 0.06 0.11 0.10 0.08
0.00 0.00 0.00 0.00 0.00 0.00 0.00 0.00 0.00 0.00 0.00 0.00 0.00 0.00 0.00 0.00 0.00 0.00 0.00 0.00 0.00 0.00 0.00 0.00 0.00 0.00 0.00 0.00 0.00 0.00 0.00 0.00
0.00 0.00 0.00 0.00 0.00 0.00 0.00 0.00 0.00 0.00 0.00 0.00 0.00 0.00 0.00 0.00 0.00 0.00 0.00 0.00 0.00 0.00 0.00 0.00 0.00 0.00 0.00 0.00 0.00 0.00 0.00 0.00
0.00 0.00 0.00 0.00 0.00 0.00 0.00 0.00 0.00 0.00 0.00 0.00 0.00 0.00 0.00 0.00 0.00 0.00 0.00 0.00 0.00 0.00 0.00 0.00 0.00 0.00 0.00 0.00 0.00 0.02 0.01 0.00
0.00 0.00 0.00 0.00 0.00 0.00 0.00 0.00 0.00 0.00 0.00 0.00 0.00 0.00 0.00 0.00 0.00 0.00 0.00 0.00 0.00 0.00 0.00 0.00 0.00 0.00 0.00 0.01 0.03 0.03 0.02 0.01
0.00 0.00 0.00 0.00 0.00 0.00 0.00 0.00 0.00 0.00 0.00 0.00 0.00 0.00 0.00 0.00 0.00 0.00 0.00 0.00 0.00 0.00 0.00 0.00 0.00 0.01 0.02 0.02 0.03 0.02 0.02 0.01
0.00 0.00 0.00 0.00 0.00 0.00 0.00 0.00 0.00 0.00 0.00 0.00 0.00 0.00 0.00 0.00 0.00 0.00 0.00 0.00 0.00 0.00 0.00 0.01 0.01 0.02 0.03 0.04 0.01 0.00 0.00 0.00
0.00 0.00 0.00 0.00 0.00 0.00 0.00 0.00 0.00 0.00 0.00 0.00 0.00 0.00 0.00 0.00 0.00 0.00 0.00 0.00 0.00 0.00 0.00 0.00 0.00 0.00 0.00 0.00 0.00 0.00 0.00 0.00
MSLP
1012.65 1013.21 1013.51 1013.69 1013.77 1013.90 1014.27 1014.61 1014.76 1015.01 1015.21 1015.20 1015.28 1015.35 1015.21 1015.21 1015.28 1015.25 1015.31 1015.35 1015.39 1015.59 1015.62 1015.53 1015.72 1015.85 1015.82 1015.91 1015.99 1015.88 1015.80 1015.56
1012.93 1013.45 1013.82 1014.08 1014.27 1014.37 1014.62 1014.98 1015.32 1015.27 1015.60 1015.88 1016.04 1016.12 1015.79 1015.66 1015.49 1015.42 1015.36 1015.41 1015.43 1015.48 1015.52 1015.50 1015.42 1015.53 1015.36 1015.41 1015.51 1015.49 1015.20 1015.16
1013.20 1013.66 1014.09 1014.51 1014.59 1014.78 1015.04 1015.33 1015.57 1015.71 1015.83 1016.19 1016.32 1016.38 1016.26 1016.19 1016.03 1015.83 1015.78 1015.66 1015.49 1015.50 1015.55 1015.58 1015.63 1015.72 1015.59 1015.53 1015.52 1015.28 1014.97 1014.91
1013.33 1013.89 1014.43 1014.72 1014.86 1014.96 1015.30 1015.55 1015.77 1016.01 1016.26 1016.39 1016.51 1016.49 1016.56 1016.66 1016.53 1016.45 1016.34 1016.15 1016.00 1015.93 1015.80 1015.63 1015.54 1015.60 1015.66 1015.57 1015.43 1015.39 1014.93 1014.70
1013.36 1014.04 1014.67 1015.02 1015.16 1015.20 1015.43 1015.78 1016.12 1016.40 1016.48 1016.71 1017.19 1017.41 1017.53 1017.30 1017.19 1016.92 1016.52 1016.06 1016.04 1015.96 1015.76 1015.64 1015.62 1015.61 1015.56 1015.45 1015.30 1015.29 1015.12 1014.72
1013.45 1014.06 1014.66 1015.07 1015.17 1015.39 1015.66 1016.02 1016.38 1016.58 1016.77 1016.98 1017.39 1017.58 1017.63 1017.25 1016.98 1016.85 1016.64 1016.40 1016.05 1015.79 1015.56 1015.53 1015.50 1015.44 1015.36 1015.29 1015.23 1015.12 1014.99 1015.06
1013.44 1014.09 1014.62 1015.13 1015.52 1015.78 1016.03 1016.26 1016.54 1016.61 1016.75 1016.93 1017.25 1017.49 1017.37 1017.20 1016.94 1016.77 1016.51 1016.35 1016.17 1016.02 1015.83 1015.90 1015.98 1015.94 1015.75 1015.51 1015.31 1015.19 1015.02 1014.91
1013.80 1014.49 1015.04 1015.50 1015.94 1016.10 1016.24 1016.46 1016.75 1016.85 1016.81 1016.85 1017.09 1017.30 1017.31 1017.32 1017.15 1016.98 1016.74 1016.56 1016.37 1016.23 1016.07 1016.01 1015.95 1015.78 1015.60 1015.52 1015.50 1015.48 1015.35 1015.16
1014.22 1014.93 1015.33 1015.85 1016.20 1016.30 1016.39 1016.53 1016.73 1016.91 1017.12 1017.38 1017.42 1017.20 1017.14 1016.97 1016.78 1016.65 1016.62 1016.54 1016.40 1016.20 1016.07 1015.95 1015.71 1015.37 1015.23 1015.11 1014.97 1014.89 1014.49 1015.14
1014.28 1014.88 1015.25 1015.67 1015.92 1016.05 1016.21 1016.46 1016.78 1017.00 1017.18 1017.30 1017.19 1016.87 1016.73 1016.72 1016.57 1016.43 1016.31 1016.30 1016.25 1015.95 1015.81 1015.66 1015.44 1015.31 1015.35 1015.35 1015.11 1014.68 1014.22 1014.03
1014.35 1014.83 1015.17 1015.56 1015.79 1016.06 1016.13 1016.41 1016.82 1017.06 1017.18 1017.19 1017.10 1016.95 1016.79 1016.63 1016.46 1016.24 1016.09 1015.96 1015.73 1015.53 1015.37 1015.11 1015.03 1014.92 1014.85 1014.80 1014.73 1014.40 1014.05 1013.40
1013.98 1014.50 1014.83 1015.16 1015.39 1015.65 1016.10 1016.48 1016.82 1016.92 1016.86 1016.78 1016.74 1016.63 1016.54 1016.46 1016.33 1016.04 1015.75 1015.54 1015.32 1015.14 1014.86 1014.64 1014.48 1014.25 1014.07 1014.09 1013.94 1013.81 1013.78 1013.43
1013.70 1014.08 1014.61 1015.07 1015.48 1015.79 1016.08 1016.46 1016.62 1016.67 1016.59 1016.69 1016.67 1016.43 1016.27 1016.18 1016.02 1015.73 1015.48 1015.35 1015.09 1014.93 1014.49 1014.27 1013.90 1013.51 1013.39 1013.37 1013.29 1013.20 1013.21 1013.24
1013.52 1014.12 1014.61 1015.05 1015.59 1016.04 1016.29 1016.35 1016.47 1016.39 1016.28 1016.42 1016.40 1016.21 1016.10 1015.99 1015.75 1015.53 1015.17 1014.88 1014.51 1014.16 1013.97 1013.74 1013.29 1012.85 1012.56 1012.44 1012.39 1012.61 1012.53 1012.30
1013.90 1014.59 1015.13 1015.58 1015.97 1016.13 1016.23 1016.35 1016.35 1016.38 1016.69 1016.78 1016.69 1016.62 1016.30 1016.07 1015.87 1015.65 1015.36 1015.01 1014.72 1014.35 1014.18 1013.75 1013.10 1012.74 1012.33 1012.15 1012.14 1012.09 1011.89 1011.47
1014.01 1014.88 1015.50 1015.68 1015.95 1016.18 1016.16 1016.29 1016.49 1016.69 1016.77 1016.78 1016.82 1016.61 1016.38 1016.14 1015.84 1015.56 1015.30 1014.96 1014.62 1014.26 1013.90 1013.46 1013.07 1012.75 1012.45 1012.25 1011.88 1011.78 1011.91 1011.71
1014.19 1014.79 1015.18 1015.61 1015.92 1016.28 1016.53 1016.77 1016.85 1016.84 1016.88 1016.76 1016.60 1016.49 1016.31 1016.26 1016.10 1015.69 1015.23 1014.78 1014.33 1014.02 1013.76 1013.28 1012.76 1012.61 1012.33 1012.88 1012.04 1011.41 1011.19 1011.77
1014.06 1014.73 1015.31 1015.88 1016.36 1016.62 1017.03 1017.20 1017.10 1016.97 1016.94 1017.06 1016.92 1016.62 1016.49 1016.41 1016.15 1015.53 1015.06 1014.81 1014.41 1013.90 1013.49 1013.15 1012.47 1012.28 1012.06 1012.23 1011.95 1011.54 1011.70 1011.14
1014.35 1015.00 1015.72 1016.39 1016.73 1017.07 1017.32 1017.36 1017.45 1017.49 1017.41 1017.26 1017.17 1017.01 1016.73 1016.38 1015.92 1015.75 1015.28 1014.70 1014.36 1013.82 1013.26 1012.90 1012.48 1012.36 1012.10 1011.79 1011.36 1010.94 1010.50 1010.48
Thickness
5716 5713 5712 5711 5710 5708 5703 5701 5701 5700 5698 5696 5694 5693 5692 5690 5687 5684 5681 5679 5677 5673 5670 5668 5664 5661 5658 5655 5651 5651 5649 5651
5711 5708 5704 5702 5701 5700 5697 5693 5689 5689 5686 5683 5682 5679 5680 5679 5677 5675 5673 5670 5667 5664 5660 5657 5655 5652 5651 5647 5643 5641 5640 5638
5702 5697 5694 5691 5691 5690 5688 5685 5682 5679 5677 5672 5670 5668 5667 5666 5663 5662 5659 5657 5654 5651 5648 5644 5640 5636 5635 5632 5628 5628 5628 5627
5693 5689 5683 5682 5682 5681 5679 5677 5673 5670 5666 5664 5660 5658 5655 5651 5648 5646 5643 5641 5638 5634 5631 5630 5627 5623 5619 5615 5612 5609 5612 5615
5685 5680 5674 5673 5672 5673 5671 5668 5662 5659 5656 5652 5646 5641 5636 5635 5632 5630 5630 5629 5624 5620 5618 5614 5611 5606 5602 5599 5596 5592 5591 5595
5676 5672 5667 5665 5666 5666 5662 5657 5651 5647 5643 5639 5632 5628 5624 5623 5622 5619 5616 5612 5608 5605 5603 5599 5594 5589 5585 5582 5577 5574 5572 5568
5670 5665 5661 5659 5656 5653 5649 5645 5640 5636 5632 5628 5622 5618 5614 5611 5609 5606 5603 5597 5592 5587 5581 5573 5566 5562 5559 5557 5555 5553 5551 5548
5657 5655 5651 5648 5644 5641 5638 5633 5628 5624 5620 5614 5608 5603 5600 5596 5592 5588 5585 5579 5572 5563 5556 5549 5546 5543 5538 5535 5533 5530 5526 5525
5646 5641 5640 5637 5634 5631 5626 5621 5615 5608 5601 5597 5593 5591 5587 5583 5579 5573 5566 5558 5551 5544 5537 5531 5526 5523 5519 5517 5515 5512 5510 5499
5635 5631 5628 5624 5622 5618 5614 5608 5600 5594 5589 5583 5580 5579 5576 5568 5561 5555 5550 5542 5534 5527 5519 5510 5503 5498 5491 5487 5483 5481 5482 5479
5626 5622 5617 5614 5609 5604 5600 5594 5586 5581 5575 5570 5566 5561 5557 5551 5546 5540 5533 5524 5515 5505 5494 5484 5474 5468 5464 5458 5453 5451 5451 5454
5617 5613 5610 5606 5601 5597 5588 5580 5575 5568 5565 5560 5554 5549 5543 5536 5528 5521 5513 5504 5494 5483 5472 5462 5454 5448 5442 5436 5434 5432 5430 5430
5610 5606 5601 5597 5592 5584 5577 5569 5561 5559 5554 5547 5541 5535 5528 5518 5509 5501 5491 5481 5473 5462 5453 5442 5437 5435 5432 5426 5423 5422 5419 5414
5598 5593 5590 5585 5578 5569 5561 5553 5551 5547 5542 5533 5525 5519 5510 5500 5491 5481 5473 5463 5453 5444 5435 5431 5429 5426 5422 5417 5412 5409 5409 5407
5582 5577 5572 5566 5560 5554 5546 5541 5537 5530 5518 5510 5504 5495 5488 5479 5470 5460 5449 5440 5430 5425 5420 5416 5414 5410 5406 5402 5398 5395 5395 5397
5570 5560 5554 5551 5544 5535 5531 5528 5518 5507 5499 5493 5483 5476 5467 5458 5450 5440 5430 5421 5416 5411 5406 5403 5397 5392 5389 5385 5385 5383 5380 5378
5558 5552 5546 5538 5530 5521 5514 5504 5496 5489 5483 5476 5467 5459 5450 5438 5426 5418 5412 5408 5404 5399 5392 5385 5382 5377 5374 5364 5367 5373 5373 5366
5547 5538 5530 5520 5509 5501 5491 5484 5478 5472 5463 5454 5447 5439 5429 5415 5407 5404 5401 5395 5389 5383 5377 5371 5371 5364 5358 5354 5356 5359 5357 5359
5529 5520 5509 5497 5489 5481 5474 5467 5459 5450 5443 5436 5426 5416 5406 5399 5395 5390 5387 5382 5375 5368 5366 5361 5358 5352 5347 5347 5351 5353 5355 5353